Погода в Кыре

Хотите узнать прогноз погоды в Кыре? Тогда Вам сюда: Погода в Кыре

Поиск расширенной информации на нашем сайте:

Полезная информация:

Новости сайта



02.01.2020
Опубликован Долгосрочный прогноз погоды по городам России и ближнего зарубежья на январь 2020 года.
Карты: Прогноз на январь и февраль 2020 года, Сравнение прогнозируемой аномалии приземной температуры воздуха на январь 2020 года по разным моделям.




Погода в Кыре - сегодня

Время (UTC), дата Ветер
(°,м/с) 
Видим.   Явления Облачность Т
(°С)
Тd
(°С)
f(%) Тe
(°С)
Pmin
(гПа)
dP
(гПа)
Po
(мм)
O2
(г/м3)
Тmin Tmax R s Состояние
почвы
21 23.11.20 330 (СЗ) н/о    8/3 1000 м средняя, верхняя 
[Sc|Ac trans|Ci fib]
-1 -7.8 60 -3  1023.7  0.3  686  278           
00 24.11.20 330 (СЗ) 20000 м    9/3 1000 м кучево-дожд., средняя, верхняя 
[Cb cap|Ac trans|Ci fib]
-1.6 -8.2 61 -3  1025.3  1.1  687  279  -4.7      мокрый или
старый снег
10-40% 
03 24.11.20 320 (СЗ) 20000 м    9/3 1000 м кучево-дожд., средняя, верхняя 
[Cb cap|Ac trans|Ci fib]
-0.8 -10.7 47 -3  1025.6  0.6  687  279           
06 24.11.20 320 (СЗ) 20000 м    9/4 1000 м кучево-дожд., средняя, верхняя 
[Cb cap|Ac trans|Ci fib]
-0.4 -12.9 38 -3  1025.1  -0.3  687  278           
09 24.11.20 350 (С) 20000 м    9/4 1000 м средняя 
[Sc|Ac trans]
-2.3 -11.4 50 -4  1027.1  1.1  688  280           
12 24.11.20 340 (С) н/о    8/3 1000 м средняя 
[Sc|Ac trans]
-4.1 -14.7 43 -6  1030.6  2.3  690  283    +0.1       
15 24.11.20 330 (СЗ) н/о    8/0 средняя 
[Ac trans]
-5.2 -16.3 41 -8  1032.7  1.4  691  285           
18 24.11.20 300 (СЗ) н/о    8/3 1000 м средняя 
[Sc|Ac trans]
-6.3 -16.7 43 -8  1034.2  0.9  691  286           
21 24.11.20 270 (З) н/о    ясно 
-7.8 -17 48 -11  1035.7  0.7  692  288           
00 25.11.20 280 (З) 20000 м    8/3 1000 м средняя 
[Sc|Ac trans]
-9.6 -17.2 54 -13  1038.1  1.4  693  291  -9.6      мокрый или
старый снег
10-40% 
03 25.11.20 290 (З) 20000 м    8/3 1000 м верхняя 
[Cu hum|Ci sp]
-6.3 -17 42 -10  1037.2  0.6  693  287  -10.4         
06 25.11.20 320 (СЗ) 20000 м    8/4 1000 м верхняя 
[Cu hum|Ci sp]
-5 -18.6 34 -7  1036  -0.6  693  286           
09 25.11.20 020 (С) 20000 м    4/0 средняя, верхняя 
[Ac lent|Ci fib]
-8.7 -18.7 44 -10  1038.6  0.9  694  290           
12 25.11.20 120 (ЮВ) н/о    ясно 
-13.5 -18.1 68 -13  1042.5  1.5  695  296    -4.6       
15 25.11.20 тихо ()   н/о    4/0 средняя, верхняя 
[Ac trans|Ci fib]
-16.6 -19.7 77 -17  1044.8  0.7  695  300           
18 25.11.20 330 (СЗ) н/о    3/0 средняя 
[Ac lent]
-17.7 -20.5 79 -18  1044.9  -0.5  695  301           
21 25.11.20 210 (ЮЗ) н/о    ясно 
-18.4 -21.3 78 -19  1045  -0.2  695  302           
00 26.11.20 260 (З) 20000 м    3/0 средняя 
[Ac lent]
-20.7 -23.6 78 -21  1046.8  0.6  695  305  -21      мокрый или
старый снег
10-40% 
03 26.11.20 240 (ЮЗ) 20000 м    ясно 
-15.1 -20.1 66 -17  1044.4  0.3  696  298           
06 26.11.20 240 (ЮЗ) 20000 м    ясно 
-8.7 -18.2 46 -8  1039.3  -1.9  694  290           
09 26.11.20 250 (З) 20000 м    ясно 
-10 -18.1 52 -12  1040.1  0.2  694  292           
12 26.11.20 280 (З) н/о    ясно 
-12.7 -18.7 61 -15  1043.3  1.8  696  295    -7.1       
15 26.11.20 240 (ЮЗ) н/о    3/0 верхняя 
[Ci fib]
-15.3 -19.4 71 -15  1045.1  0.4  696  298           
18 26.11.20 270 (З) н/о    8/0 средняя, верхняя 
[Ac trans|Cs]
-15.6 -19.4 73 -16  1045.8  0.5  696  299           
21 26.11.20 260 (З) н/о    3/3 1000 м 
[Sc]
-15.7 -19.7 71 -16  1045.6  -0.2  696  299           
Время (UTC), дата Ветер
(°,м/с) 
Видим.   Явления Облачность Т
(°С)
Тd
(°С)
f(%) Тe
(°С)
Pmin
(гПа)
dP
(гПа)
Po
(мм)
O2
(г/м3)
Тmin Tmax R s Состояние
почвы

Для получения пояснительной информации подведите курсор к названию столбца.

ПОГОДА в Кыре - архив

Всё, что Вы хотите узнать о погоде в Кыре - удобно и подробно!

Выберите нужную дату (начиная с 1 января 2019* года) и нажмите кнопку "Найти".
Будут отображены архивные сводки погоды по пункту Кыра, начиная с указанной даты.


Отображать данные в формате CSV (для использования в таблицах Excel)


Внимание! Наш архив погоды предназначен исключительно для личного некоммерческого использования в познавательных целях. Если Вам необходимы официальные справки о состоянии погоды (для производственных, юридических, коммерческих и т.п. целей), обращайтесь в органы Росгидромета.

*Примечание: данная дата относится к архиву по метеостанциям СССР (Россия, СНГ, Балтия).
Архив по метеостанциям Зарубежной Европы и Азии (кроме Китая) хранится 10 дней, по другим регионам земного шара (Китай, Африка, Америка, Австралия, Океания) - 1 день.

Кыра - район местоположения метеостанции


Название, широта, долгота, высота метеостанции:
Кыра 49.6°ш. 112°д. 908 м над ур. моря [Российская Федерация]

Дополнительная информация

В oтличие oт бoльшинства пoгoдных сайтoв мы публикуем пoдрoбную метеoинфoрмацию в детальнoм прoфессиoнальнoм фoрмате.

Характеристики температуры и влажнoсти вoздуха измеряются на высoте 2 м в тени вдали oт зданий и деревьев.
Скoрoсть ветра измеряется на высoте 10 м (на урoвне рoста челoвека скoрoсть ветра ниже в 1.5-2 раза). Если метеoстанция нахoдится в гoрoде или в лесу, тo скoрoсть ветра занижена на 2-4 м/с пo сравнению с oткрытым местoм. Скoрoсть ветра над акватoриями крупных рек и oзёр, а также на вершинах хoлмoв на 2-5 м/с выше, чем в oбычных услoвиях.
Атмoсфернoе давление в разных тoчках местнoсти мoжет значительнo oтличаться oт давления на метеoстанции, в зависимoсти oт услoвий рельефа (при пoдъёме на 10 м давление пoнижается примернo на 1 мм рт.ст.).